DELTA 1 DEB, 7181

Orbit data source: Space-Track

DELTA 1 DEB, 7181 is space debris in SSO originally from a launch on Tue, 06 Nov 1973 UTC launched from the Air Force Western Test Range (AFWTR). Debris objects in space refer to the collection of defunct objects orbiting the Earth. Examples of debris include non-operational satellites, rocket bodies, and fragments generated from explosions, collisions, or faulty payload assembly.

Loading next visibility...
Identifier
7181, 1973-086ES
Orbit
SSO
Country
Flag of USUS
Related business
Manufacturer
Unknown
Mission
Spacecraft
Bus & Motor
Unknown
Mass
Unknown
Launch date (UTC)
1973-11-06 (53 years ago)
Launch vehicle
Unknown
Launch site
Air Force Western Test Range (AFWTR)
Object type
Payload
Rocket body
Debris
Shape & HBR
Unknown shape, 0.1 m
Radar Cross Section
Medium (>0.1 m² and <1 m²)

Expand to show TLE details & history
Last TLE update: 17 hours ago

TLE from 17 hours ago
0 DELTA 1 DEB
1 07181U 73086ES  26264.35993220  .00000161  00000-0  12374-2 0  9991
2 07181 102.4027  48.0922 0103188 279.5235 107.1872 12.57262595422507
Epoch: 2026-09-21T08:38Z
TLE epoch observation values (Epoch: 2026-09-21T08:38:18.142Z)
Latitude
27.17039°
Longitude
-88.1735°
Altitude
1,461.852 km
Speed
7.123 km/s
True Right ascension
02h 46m 34s
True Declination
27° 02' 36"
Sunlit
Object was in full shadow at epoch
Visualization orbit readout
Latitude
Unknown
Longitude
Unknown
Altitude
Unknown
Speed
Unknown
Apparent Right ascension
Unknown
Apparent Declination
Unknown
Sunlit
N/A
Visualization observer readout
Local Sidereal Time
18:18:34
Azimuth
Unknown
Elevation
Unknown
Doppler factor
Unknown
Orbital elements
Apogee altitude
1,512.43 km
Perigee altitude
1,351.25 km
Semi-major axis
7,809.977 km
Eccentricity
0.01032
Inclination
102.4027°
RAAN
48.0922°
Arg. of periapsis
279.5235°
True anomaly
108.31248°
Mean anomaly
107.1872°
Eccentric anomaly
107.75028°
Mean motion
3.14462 °/min
Orbital period
114.48 mins
BSTAR
0.0012374
Loading maneuver chart data...
Computing Atmospheric mass density...
Loading historical data...
Loading historical data...
Loading historical data...
Loading historical data...
Loading historical data...
Loading historical data...
Loading historical data...

Documentation

Showing up to 5 results
|